Location: Cucq
(50.4773°N, 1.6202°E)
Time: 06:05:17
(UTC+00:00)

COBE Rocket - Pass Details

Date: 07 August 2020
Orbit: 681 x 781 km, 97.1° (Epoch: 23 September)

Event Time Altitude Azimuth Distance (km) Brightness Sun altitude
Exits shadow 01:47:29 21° 151° (SSE) 1,538 5.3 -19.1°
Maximum altitude 01:50:36 67° 73° (ENE) 747 4.0 -18.9°
Drops below altitude 10° 01:55:13 10° 352° (N) 2,136 7.1 -18.5°
Sets 01:57:28 0° 350° (N) 3,057 7.9 -18.3°
